Regional Weather Roundup
Issued by NWS Newport/Morehead, NC

Current Version | Previous Version | Graphics & Text | Print | Product List | Glossary Off
Versions: 1 2 3 4 5 6 7 8 9 10 11 12 13 14 15 16 17 18 19 20 21 22 23 24 25 26 27 28 29 30 31 32 33 34 35 36 37 38 39 40 41 42 43 44 45 46 47 48 49 50

701
ASUS42 KMHX 041613
RWRMHX
WEATHER ROUNDUP FOR EASTERN NORTH CAROLINA
NATIONAL WEATHER SERVICE NEWPORT/MOREHEAD CITY NC
1100 AM EST SUN DEC 04 2016

NOTE: "FAIR" INDICATES FEW OR NO CLOUDS BELOW 12,000 FEET
WITH NO SIGNIFICANT WEATHER AND/OR OBSTRUCTIONS TO VISIBILITY

NCZ015>017-031-032-045>047-102-103-041700-
NORTH COAST

CITY           SKY/WX    TMP DP  RH WIND       PRES   REMARKS
EDENTON        CLOUDY    48  39  72 CALM      30.30F
ELIZABETH CITY CLOUDY    48  37  65 N6        30.28F
KITTY HAWK     CLOUDY    50  39  66 N5        30.26F
MANTEO         CLOUDY    49  40  73 N7        30.28F

$$

NCZ045>047-081-094-103-104-041700-
CENTRAL COAST

CITY           SKY/WX    TMP DP  RH WIND       PRES   REMARKS
FRISCO         PTSUNNY   52  42  69 VRB3      30.26F

$$

NCZ095-097-098-100-101-041700-
SOUTHERN COAST

CITY           SKY/WX    TMP DP  RH WIND       PRES   REMARKS
BEAUFORT       CLOUDY    52  41  66 VRB7      30.27F
CEDAR ISLAND   NOT AVBL
JACKSONVILLE   LGT RAIN  46  42  86 CALM      30.27F
PINEY ISLAND   PTSUNNY  N/A N/A N/A N6        30.27F
WILMINGTON     CLOUDY    47  39  74 N5        30.28S


$$

NCZ011>013-027>030-043-044-078>080-089-090>093-098-041700-
COASTAL PLAIN

CITY           SKY/WX    TMP DP  RH WIND       PRES   REMARKS
AHOSKIE        CLOUDY    42  32  68 CALM      30.31F
CLINTON        DRIZZLE   44  42  91 NE3       30.30S
ELIZABETHTOWN  DRIZZLE   44  40  85 CALM      30.29S
GOLDSBORO      MOSUNNY   45  40  83 NE3       30.27F
GREENVILLE     CLOUDY    45  36  70 CALM      30.30F
HAVELOCK       CLOUDY    50  40  68 NE6       30.29F
KENANSVILLE    LGT RAIN  45  41  87 E3        30.29F
KINSTON        MOSUNNY   45  37  76 CALM      30.30S
NEW BERN       CLOUDY    48  38  68 CALM      30.29F
RICHLANDS      LGT RAIN  46  41  82 NE5       30.28F
ROCKY MOUNT    MOSUNNY   44  33  65 VRB3      30.30F
WASHINGTON     CLOUDY    46  37  70 CALM      30.30S
WHITEVILLE     CLOUDY    47  37  67 NE5       30.27F

$$

AMZ130-135-150-152-154-156-158-170-250-252-270-ANZ085-086-088-633-658-670-041700-
MARINE OBSERVATIONS

STATION/POSITION TIME  TEMP    WIND        PRES    WAVE   SWELL
                       AIR SEA DIR/SP/G            HT/PER HT/PER
                 (UTC) (F)     (DEG/KT/KT) (MB)    (FT/S) (FT/S)
CHESAPEAKE LIGHT NOT AVBL
64 E VA BEACH    1550   49 60  350/ 10/ 14 1024.4    4/ 7   3/ 7
DUCK             1536   47 55  320/  8/ 10 1024.8
2 E DUCK         NOT AVBL
OREGON INLET     1536   51 54   10/  8/ 10 1025.0
13E OREGON INLT  1530      60                N/A     4/ 7   3/ 7
HATTERAS CG      1536   50 55   10/ 11/ 12 1024.7
DIAMOND BUOY     1550   54 75   40/ 10/ 14 1024.6    5/ 9   5/ 9
CAPE LOOKOUT     1500   50      10/ 10/ 14 1025.2
BEAUFORT LAB     1536   50 55   20/  7/  9 1024.1
30 SE NEW RVR IN 1508   55 72   20/ 10/ 14 1025.2
30 SE NEW RVR IN NOT AVBL
27 SE WRIGHTSVLE 1508   56 68   40/ 10/ 17 1024.5
5 SE WRIGHTSVLE  1508   50 63   40/ 14/ 21 1024.8
225 S CAPE HAT   1550   65 73   80/  4/  6 1022.8    5/ 9   5/ 9
41 SE CHARLESTON 1550   65 75   80/ 12/ 17 1021.9    3/ 8   2/ 8

$$




USA.gov is the U.S. government's official web portal to all federal, state and local government web resources and services.